Snoqualmie Pass
Mt. Washington
Latest observation 09/03 18:00 PDT
| Time (PDT) | Temp °F 4340' | Dir ° 4340' | RH % 4340' | SR W/m² 4340' |
|---|---|---|---|---|
| 09/03 18:00 | 40 | 187 | 83 | 9 |
| 09/03 17:00 | 43 | 185 | 54 | 9 |
| 09/03 16:00 | 43 | 182 | 95 | 10 |
| 09/03 15:00 | 45 | 180 | 86 | 11 |
| 09/03 14:00 | 44 | 78 | 87 | 11 |
| 09/03 13:00 | 46 | 168 | 87 | 11 |
| 09/03 12:00 | 46 | 179 | 87 | 11 |
| 09/03 11:00 | 44 | 139 | 93 | 11 |
| 09/03 10:00 | 42 | 170 | 95 | 11 |
| 09/03 09:00 | 41 | 96 | 77 | 11 |
| 09/03 08:00 | 40 | 164 | 68 | 11 |
| 09/03 07:00 | 39 | 247 | 57 | 4 |
| 09/03 06:00 | 39 | 231 | 60 | 0 |
| 09/03 05:00 | 39 | 244 | 95 | 0 |
| 09/03 04:00 | 39 | 232 | 95 | 0 |
| 09/03 03:00 | 39 | 213 | 97 | 0 |
| 09/03 02:00 | 39 | 241 | 99 | 0 |
| 09/03 01:00 | 39 | 223 | 100 | 0 |
| 09/03 00:00 | 39 | 210 | 100 | 0 |
| 09/02 23:00 | 39 | 206 | 100 | 0 |
| 09/02 22:00 | 40 | 226 | 100 | 0 |
| 09/02 21:00 | 41 | 214 | 100 | 0 |
| 09/02 20:00 | 41 | 210 | 47 | 7 |
| 09/02 19:00 | 43 | 199 | 24 | 9 |
| 09/02 18:00 | 43 | 177 | 29 | 10 |
| 09/02 17:00 | 44 | 175 | 51 | 10 |
| 09/02 16:00 | 48 | 153 | 85 | 11 |
| 09/02 15:00 | 48 | 116 | 63 | 11 |
| 09/02 14:00 | 50 | 185 | 89 | 11 |
| 09/02 13:00 | 49 | 140 | 91 | 11 |
| 09/02 12:00 | 49 | 157 | 94 | 11 |
| 09/02 11:00 | 46 | 168 | 85 | 11 |
| 09/02 10:00 | 45 | 160 | 100 | 11 |
| 09/02 09:00 | 43 | 182 | 100 | 10 |
| 09/02 08:00 | 44 | 211 | 100 | 8 |
| 09/02 07:00 | 44 | 226 | 100 | 1 |
| 09/02 06:00 | 44 | 217 | 100 | 0 |
| 09/02 05:00 | 45 | 220 | 100 | 0 |
| 09/02 04:00 | 45 | 197 | 100 | 0 |
| 09/02 03:00 | 45 | 239 | 100 | 0 |
| 09/02 02:00 | 46 | 215 | 100 | 0 |
| 09/02 01:00 | 46 | 181 | 100 | 0 |
| 09/02 00:00 | 45 | 203 | 100 | 0 |
| 09/01 23:00 | 46 | 231 | 100 | 0 |
| 09/01 22:00 | 46 | 226 | 100 | 0 |
| 09/01 21:00 | 46 | 217 | 93 | 0 |
| 09/01 20:00 | 47 | 239 | 99 | 4 |
| 09/01 19:00 | 47 | 211 | 50 | 8 |
| 09/01 18:00 | 48 | 178 | 54 | 10 |
| 09/01 17:00 | 49 | 205 | 98 | 10 |
| 09/01 16:00 | 49 | 201 | 89 | 11 |
| 09/01 15:00 | 49 | 203 | 87 | 11 |
| 09/01 14:00 | 49 | 195 | 83 | 11 |
| 09/01 13:00 | 50 | 193 | 78 | 11 |
| 09/01 12:00 | 58 | 195 | 74 | 11 |
| 09/01 11:00 | 55 | 160 | 80 | 11 |
| 09/01 10:00 | 55 | 205 | 83 | 11 |
| 09/01 09:00 | 53 | 198 | 84 | 11 |
| 09/01 08:00 | 52 | 175 | 86 | 10 |
| 09/01 07:00 | 51 | 176 | 90 | 3 |
| 09/01 06:00 | 51 | 188 | 90 | 0 |
| 09/01 05:00 | 52 | 198 | 88 | 0 |
| 09/01 04:00 | 55 | 179 | 66 | 0 |
| 09/01 03:00 | 57 | 171 | 47 | 0 |
| 09/01 02:00 | 59 | 91 | 43 | 0 |
| 09/01 01:00 | 59 | 118 | 42 | 0 |
| 09/01 00:00 | 60 | 118 | 41 | 0 |
| 08/31 23:00 | 59 | 140 | 42 | 0 |
| 08/31 22:00 | 59 | 88 | 46 | 0 |
| 08/31 21:00 | 59 | 46 | 57 | 0 |
| 08/31 20:00 | 61 | 160 | 55 | 7 |
| 08/31 19:00 | 65 | 180 | 46 | 10 |
| 08/31 18:00 | 65 | 140 | 42 | 10 |
| 08/31 17:00 | 67 | 154 | 41 | 10 |
| 08/31 16:00 | 68 | 145 | 40 | 10 |
| 08/31 15:00 | 67 | 162 | 44 | 10 |
| 08/31 14:00 | 66 | 167 | 47 | 10 |
| 08/31 13:00 | 63 | 148 | 51 | 10 |
| 08/31 12:00 | 62 | 152 | 52 | 10 |
| 08/31 11:00 | 59 | 82 | 58 | 10 |
| 08/31 10:00 | 58 | 82 | 60 | 9 |
| 08/31 09:00 | 57 | 64 | 61 | 9 |
| 08/31 08:00 | 55 | 72 | 61 | 9 |
| 08/31 07:00 | 53 | 145 | 64 | 3 |
| 08/31 06:00 | 53 | 86 | 63 | 0 |
| 08/31 05:00 | 52 | 187 | 68 | 0 |
| 08/31 04:00 | 52 | 66 | 65 | 0 |
| 08/31 03:00 | 49 | 22 | 72 | 0 |
| 08/31 02:00 | 47 | 36 | 79 | 0 |
| 08/31 01:00 | 47 | 69 | 82 | 0 |
| 08/31 00:00 | 45 | 40 | 89 | 0 |
| 08/30 23:00 | 46 | 62 | 87 | 0 |
| 08/30 22:00 | 46 | 63 | 86 | 0 |
| 08/30 21:00 | 46 | 79 | 88 | 0 |
| 08/30 20:00 | 46 | 100 | 87 | 7 |
| 08/30 19:00 | 47 | 109 | 83 | 11 |
| 08/30 18:00 | 47 | 134 | 83 | 11 |
| 08/30 17:00 | 48 | 103 | 82 | 11 |
| 08/30 16:00 | 47 | 88 | 81 | 11 |
| 08/30 15:00 | 46 | 99 | 84 | 11 |
| 08/30 14:00 | 46 | 114 | 88 | 11 |
| 08/30 13:00 | 44 | 66 | 87 | 11 |
| 08/30 12:00 | 43 | 96 | 73 | 11 |
| 08/30 11:00 | 43 | 103 | 78 | 11 |
| 08/30 10:00 | 42 | 178 | 100 | 11 |
| 08/30 09:00 | 42 | 201 | 100 | 11 |
| 08/30 08:00 | 40 | 120 | 100 | 9 |
| 08/30 07:00 | 40 | 230 | 100 | 4 |
| 08/30 06:00 | 40 | 192 | 100 | 0 |
| 08/30 05:00 | 40 | 208 | 100 | 0 |
| 08/30 04:00 | 40 | 200 | 100 | 0 |
| 08/30 03:00 | 41 | 195 | 100 | 0 |
| 08/30 02:00 | 41 | 185 | 100 | 0 |
| 08/30 01:00 | 41 | 187 | 100 | 0 |
| 08/30 00:00 | 42 | 210 | 100 | 0 |
| 08/29 23:00 | 42 | 199 | 100 | 0 |
| 08/29 22:00 | 43 | 196 | 100 | 0 |
| 08/29 21:00 | 44 | 200 | 100 | 0 |
| 08/29 20:00 | 44 | 202 | 23 | 4 |
| 08/29 19:00 | 45 | 229 | 39 | 10 |
| 08/29 18:00 | 47 | 207 | 85 | 11 |
| 08/29 17:00 | 48 | 200 | 56 | 11 |
| 08/29 16:00 | 45 | 196 | 60 | 11 |
| 08/29 15:00 | 43 | 197 | 98 | 11 |
| 08/29 14:00 | 43 | 209 | 99 | 11 |
| 08/29 13:00 | 42 | 215 | 100 | 11 |
| 08/29 12:00 | 42 | 206 | 100 | 11 |
| 08/29 11:00 | 41 | 196 | 100 | 11 |
| 08/29 10:00 | 38 | 178 | 100 | 11 |
| 08/29 09:00 | 40 | 199 | 100 | 9 |
| 08/29 08:00 | 41 | 194 | 100 | 6 |
| 08/29 07:00 | 41 | 244 | 100 | 2 |
| 08/29 06:00 | 41 | 226 | 100 | 0 |
| 08/29 05:00 | 42 | 205 | 100 | 0 |
| 08/29 04:00 | 42 | 188 | 100 | 0 |
| 08/29 03:00 | 43 | 188 | 100 | 0 |
| 08/29 02:00 | 44 | 190 | 83 | 0 |
| 08/29 01:00 | 45 | 184 | 29 | 0 |
| 08/29 00:00 | 46 | 188 | 68 | 0 |
| 08/28 23:00 | 47 | 190 | 95 | 0 |
| 08/28 22:00 | 46 | 186 | 94 | 0 |
| 08/28 21:00 | 46 | 180 | 93 | 0 |
| 08/28 20:00 | 48 | 186 | 91 | 6 |
| 08/28 19:00 | 49 | 214 | 86 | 10 |
| 08/28 18:00 | 51 | 195 | 83 | 11 |
| 08/28 17:00 | 54 | 194 | 77 | 10 |
| 08/28 16:00 | 53 | 198 | 78 | 11 |
| 08/28 15:00 | 55 | 200 | 75 | 11 |
| 08/28 14:00 | 51 | 212 | 84 | 11 |
| 08/28 13:00 | 49 | 177 | 90 | 11 |
| 08/28 12:00 | 48 | 129 | 91 | 11 |
| 08/28 11:00 | 47 | 81 | 92 | 11 |
| 08/28 10:00 | 46 | 69 | 76 | 11 |
| 08/28 09:00 | 45 | 122 | 100 | 11 |
| 08/28 08:00 | 45 | 83 | 98 | 10 |
| 08/28 07:00 | 45 | 90 | 83 | 4 |
| 08/28 06:00 | 45 | 183 | 100 | 0 |
| 08/28 05:00 | 46 | 232 | 75 | 0 |
| 08/28 04:00 | 46 | 247 | 91 | 0 |
| 08/28 03:00 | 45 | 17 | 94 | 0 |
| 08/28 02:00 | 45 | 185 | 91 | 0 |
| 08/28 01:00 | 45 | 197 | 100 | 0 |
| 08/28 00:00 | 45 | 189 | 82 | 0 |
| 08/27 23:00 | 47 | 202 | 94 | 0 |
| 08/27 22:00 | 48 | 198 | 96 | 0 |
| 08/27 21:00 | 49 | 187 | 93 | 0 |
| 08/27 20:00 | 51 | 196 | 87 | 8 |
| 08/27 19:00 | 52 | 233 | 83 | 10 |

